STARLINK-11156 [DTC]

Last updated on Mon Oct 14 2024 00:02:03 GMT+0000 (Coordinated Universal Time)

1 61056U 24164G 24287.50124910 .00015749 00000+0 99987-4 0 9991 2 61056 53.1542 316.2048 0001664 81.9554 278.1656 15.76741591 4974
UTC large
Height (km)
Speed (km/s)
/
Latitude / Longitude
Inclination (degrees)
Orbital Period (minutes)
Azimuth
Elevation
Range (km)
Doppler Factor

Next 0 passes for location: London (51.5072 / 0.1276)

Sorry there are no passes over London.